{"data":{"norad_id":46572,"epoch":"2026-07-05T19:12:46.434816Z","epoch_age_seconds":6652605,"freshness":"OLD","line1":"1 46572U 20070AS  26186.80053744  .05982755  12170-4  12400-2 0  9992","line2":"2 46572  53.0273 266.5046 0011444 320.0984  39.9216 16.30106579318702","mean_motion":16.30106579,"eccentricity":0.0011444,"inclination_deg":53.0273,"raan_deg":266.5046,"arg_perigee_deg":320.0984,"mean_anomaly_deg":39.9216,"bstar":0.00124,"rev_number":31870,"period_min":88.337782237734,"perigee_km":184.73423384126,"apogee_km":199.77254336269,"semimajor_km":6570.390388602,"source":"CELESTRAK","updated_at":"2026-07-06T09:01:09.196162Z"}}